GFSFLT2_con_sbcape_057.txt.gz
CAPE
0 0 0 0 0 0 0 0 0 0 0 0 0 122 202 104 267 46 84 316 89 341 237 208 202 170 217 309 312 822 647 90
0 0 0 0 0 0 0 0 0 0 0 0 0 0 240 201 118 462 518 521 423 397 325 212 233 223 241 410 327 689 745 521
0 0 0 0 0 0 0 0 0 0 0 0 0 0 292 261 203 518 260 419 291 315 379 83 202 202 322 682 517 556 515 809
0 0 0 0 0 0 0 0 0 0 0 0 0 0 49 335 270 411 393 408 283 194 205 51 133 342 320 548 816 800 728 621
0 0 0 0 0 0 0 0 0 0 0 0 0 0 0 0 26 334 370 329 50 84 189 199 104 298 502 473 899 996 1067 713
0 0 0 0 0 0 0 0 0 0 0 0 0 0 0 0 0 44 457 262 127 76 55 36 26 159 492 501 752 1002 1155 1189
0 0 0 0 0 0 0 0 0 0 0 0 0 0 0 0 0 0 19 128 19 13 2 309 154 295 415 658 525 1020 1223 1322
0 0 0 0 0 0 0 0 0 0 0 0 0 0 0 0 0 0 0 0 0 0 0 150 74 28 0 351 692 636 1271 1422
0 0 0 0 0 0 0 0 0 0 0 0 0 0 0 0 0 0 0 0 0 0 29 35 3 6 0 1 833 815 857 1344
0 4 1 0 0 0 0 0 0 0 0 0 0 0 0 0 0 0 0 0 150 35 376 394 304 6 0 5 193 911 924 1062
6 10 0 0 0 0 0 0 0 0 0 0 0 0 0 0 0 0 0 0 7 0 7 399 187 1 0 3 4 0 1012 1030
9 8 0 0 0 1 0 0 0 0 0 0 0 0 0 0 0 0 0 0 0 0 0 61 564 29 1 2 0 14 244 1299
23 118 32 0 0 22 10 0 0 0 0 0 0 0 0 0 0 0 0 0 52 178 154 287 504 747 488 168 38 889 1105 1448
6 42 2 0 0 3 1 0 0 0 0 0 0 0 0 0 0 0 0 0 81 60 54 140 692 581 1084 852 841 1542 1854 1660
4 0 0 0 1 0 1 1 0 2 0 0 0 0 0 0 0 0 0 0 0 0 0 88 141 204 674 859 1528 1730 2453 1871
0 0 0 0 2 2 4 14 4 0 4 4 2 0 0 0 0 1 0 0 0 5 37 24 0 0 177 486 712 1310 2422 2874
8 3 13 3 1 12 9 5 7 8 0 0 1 0 0 1 3 4 0 0 0 1 0 0 0 0 0 1 17 521 1770 2922
1 7 17 8 15 14 14 14 15 7 7 2 36 30 7 3 38 4 2 1 0 0 1 1 0 0 0 0 0 27 933 2284
0 0 24 5 10 19 28 23 11 18 11 32 7 4 4 27 53 26 17 10 4 4 1 3 0 0 0 1 2 2 405 1874

GFSFLT2_con_sbcape_060.txt.gz
CAPE
0 0 0 0 0 0 0 0 0 0 0 0 0 0 277 168 67 20 46 184 294 148 51 7 11 31 122 383 212 108 81 38
0 0 0 0 0 0 0 0 0 0 0 0 0 0 69 98 97 81 388 332 400 191 97 78 96 33 30 163 346 302 112 5
0 0 0 0 0 0 0 0 0 0 0 0 0 0 0 119 79 148 392 334 382 327 153 169 159 143 109 40 98 502 469 185
0 0 0 0 0 0 0 0 0 0 0 0 0 0 0 0 83 191 162 378 351 360 295 180 187 162 184 168 120 96 532 451
0 0 0 0 0 0 0 0 0 0 0 0 0 0 0 0 52 333 418 382 196 38 0 0 41 211 240 300 279 144 267 459
0 0 0 0 0 0 0 0 0 0 0 0 0 0 0 0 2 309 240 189 16 36 28 8 0 2 97 246 519 363 270 387
0 0 0 0 0 0 0 0 0 0 0 0 0 0 0 0 0 8 119 111 0 0 0 0 0 0 26 158 418 611 538 543
0 0 0 0 0 0 0 0 0 0 0 0 0 0 0 0 0 0 0 0 0 0 1 53 1 0 45 59 250 788 820 810
0 0 0 0 0 0 0 0 0 0 0 0 0 0 0 0 0 0 0 0 0 0 56 177 90 22 23 3 0 167 903 950
0 0 0 0 0 0 0 0 0 0 0 0 0 0 0 0 0 0 0 0 0 0 0 12 29 56 22 0 19 5 47 1027
10 0 0 0 0 0 0 0 0 0 0 0 0 0 0 0 0 0 0 0 0 0 0 57 7 12 3 138 88 15 0 3
0 0 0 0 0 0 0 0 0 0 0 0 0 0 0 0 0 0 0 0 0 0 0 10 387 69 15 98 203 14 0 7
1 13 0 0 0 0 5 0 0 1 0 0 1 0 0 0 0 0 0 0 0 0 0 39 145 71 14 18 8 8 3 0
0 17 1 0 0 0 0 0 2 1 0 1 1 0 0 0 0 0 0 0 0 0 0 4 154 310 694 405 243 54 0 1
0 0 0 0 4 0 0 4 1 1 0 2 1 0 0 0 0 0 0 0 0 0 0 0 90 36 12 155 572 531 422 784
0 0 0 2 4 10 11 10 2 0 3 6 3 0 0 0 0 0 0 0 0 0 0 0 0 0 0 0 0 10 89 310
1 0 0 0 1 15 18 18 5 6 9 4 9 0 0 0 0 0 2 0 0 0 0 0 0 0 0 0 0 2 1 71
0 0 0 0 0 27 21 20 23 15 11 4 8 20 27 14 2 0 0 3 3 0 0 0 0 0 0 0 0 2 3 2
0 0 0 0 0 16 10 15 16 16 20 18 6 13 12 7 4 0 2 55 13 0 0 0 0 0 0 0 0 1 2 3

GFSFLT2_con_sbcape_063.txt.gz
CAPE
0 0 0 0 0 0 0 0 0 0 0 0 0 0 0 104 232 196 182 163 146 42 3 0 0 2 167 115 0 29 44 9
0 0 0 0 0 0 0 0 0 0 0 0 0 0 0 34 159 276 281 215 38 87 1 0 30 32 114 168 81 27 49 34
0 0 0 0 0 0 0 0 0 0 0 0 0 0 0 0 0 149 13 44 59 22 45 8 36 48 94 150 144 89 85 63
0 0 0 0 0 0 0 0 0 0 0 0 0 0 0 40 0 0 54 70 274 185 51 46 17 8 31 114 193 149 95 71
0 0 0 0 0 0 0 0 0 0 0 0 0 0 0 4 153 330 230 39 0 0 1 0 8 21 1 9 52 144 194 135
0 0 0 0 0 0 0 0 0 0 0 0 0 0 0 0 0 52 126 0 0 0 0 0 0 0 0 1 33 37 125 301
0 0 0 0 0 0 0 0 0 0 0 0 0 0 0 0 0 0 0 0 0 0 0 0 0 0 0 0 3 42 35 161
0 0 0 0 0 0 0 0 0 0 0 0 0 0 0 0 0 0 0 0 0 0 0 0 0 16 0 0 0 146 152 108
0 0 0 0 0 0 0 0 0 0 0 0 0 0 0 0 0 0 0 0 0 0 0 0 0 7 25 0 9 234 325 227
0 0 0 0 0 0 0 0 0 0 0 0 0 0 0 0 0 0 0 0 0 0 0 0 0 0 30 30 3 18 524 508
0 0 0 0 0 0 0 0 0 0 0 0 0 0 0 0 0 0 0 0 0 0 0 0 0 90 113 36 91 68 49 287
0 0 0 0 0 0 0 0 0 0 0 2 1 0 0 0 0 0 0 0 0 0 0 0 0 0 2 3 122 136 53 12
0 10 0 0 0 0 0 0 0 0 0 0 0 1 0 0 0 0 0 0 0 0 0 0 0 0 0 18 25 24 19 11
0 0 0 0 0 0 0 0 1 0 0 0 0 1 0 0 0 0 0 0 0 0 0 0 0 0 0 2 28 372 431 21
0 0 0 0 0 3 7 5 1 0 1 4 4 1 9 0 0 0 0 0 0 0 0 0 0 0 1 0 0 1 5 29
0 0 0 0 0 0 2 3 6 12 13 9 7 1 3 3 0 0 0 0 0 0 0 0 0 0 0 0 0 0 1 5
0 0 0 0 0 0 0 9 11 15 20 12 14 13 8 17 18 8 10 1 0 0 0 0 0 0 0 0 0 0 0 1
0 0 0 0 0 0 0 18 17 20 13 18 21 14 11 8 9 2 16 1 0 0 0 0 1 0 0 0 0 0 0 0
0 0 0 0 0 0 0 11 19 19 12 21 17 12 15 13 19 7 6 2 7 0 1 3 0 0 0 0 0 0 0 0

GFSFLT2_con_sbcape_069.txt.gz
CAPE
0 0 0 0 0 0 0 0 0 0 0 0 0 0 0 174 239 269 684 759 572 373 317 370 437 495 508 563 589 566 623 1069
0 0 0 0 0 0 0 0 0 0 0 0 0 0 0 104 225 98 354 799 753 535 294 334 447 491 496 603 675 687 603 743
0 0 0 0 0 0 0 0 0 0 0 0 0 0 0 0 0 295 561 390 703 669 458 364 324 372 418 537 626 627 591 900
0 0 0 0 0 0 0 0 0 0 0 0 0 0 0 0 0 0 4 82 445 558 334 346 319 291 302 435 489 519 802 1069
0 0 0 0 0 0 0 0 0 0 0 0 0 0 0 0 0 0 0 0 0 0 0 164 323 281 189 252 414 337 518 560
0 0 0 0 0 0 0 0 0 0 0 0 0 0 0 0 0 0 0 0 0 0 0 0 1 83 270 259 214 376 415 336
0 0 0 0 0 0 0 0 0 0 0 0 0 0 0 0 0 0 0 0 0 0 0 0 0 0 2 76 98 301 555 587
0 0 0 0 0 0 0 0 0 0 0 0 0 0 0 0 0 0 0 0 0 0 0 0 0 0 0 6 37 144 213 664
0 0 0 0 0 0 0 0 0 0 0 0 0 0 0 0 0 0 0 0 0 0 0 0 0 0 0 10 37 142 239 215
0 0 0 0 0 0 0 0 0 0 0 0 0 0 0 0 0 0 0 0 0 0 0 0 0 0 0 0 0 23 614 233
0 0 0 0 0 0 0 0 1 0 0 0 0 0 0 0 0 0 0 0 0 0 0 0 0 0 0 0 0 0 90 532
0 0 0 0 0 0 0 0 1 0 0 0 0 0 0 0 0 0 0 0 0 0 0 0 0 0 0 0 0 0 2 74
1 0 0 0 0 0 0 0 0 0 0 0 0 0 0 0 0 0 0 0 0 0 0 0 0 0 0 0 0 0 0 75
2 1 0 0 0 0 0 0 0 0 0 0 0 0 0 0 0 0 0 0 0 0 0 0 0 0 0 0 0 0 0 7
0 0 0 0 0 0 0 0 0 0 0 0 0 2 1 2 2 2 7 6 8 6 7 0 1 5 3 3 5 0 0 9
0 0 0 0 0 0 0 0 0 0 0 0 6 7 3 4 8 11 10 10 11 16 19 11 4 6 5 3 12 6 0 9
0 0 0 0 0 0 0 0 0 0 0 4 9 8 13 14 11 5 12 7 7 8 17 24 23 10 7 2 5 15 3 7
0 0 0 0 0 0 0 0 0 1 3 12 25 18 14 21 8 0 5 24 34 28 27 27 25 24 13 8 19 25 17 9
0 0 0 0 0 0 0 0 0 0 0 0 1 12 13 25 32 28 18 27 31 36 35 28 27 22 26 14 19 40 22 33

GFSFLT2_con_sbcape_072.txt.gz
CAPE
0 0 0 0 6 3 0 0 5 0 0 0 0 39 72 300 430 458 1164 1202 990 907 849 806 860 832 1020 1156 1618 1617 1470 1639
0 0 0 0 0 0 0 0 0 0 0 0 0 3 26 26 138 640 785 1117 1233 1000 970 871 935 959 1084 1199 1539 1707 1599 1573
0 0 0 0 0 0 0 0 1 13 4 0 0 0 0 2 0 1 78 377 361 869 890 926 1010 1057 1087 1182 1304 1585 1610 1567
0 0 0 0 0 0 1 5 0 16 0 0 0 0 0 0 0 0 0 0 0 0 0 50 877 983 1060 1177 1185 1331 1439 1634
0 0 0 0 0 0 0 0 19 0 0 0 0 0 0 0 0 0 0 0 0 0 0 0 0 7 825 941 1004 926 1229 1333
0 0 0 0 0 0 0 1 28 6 0 0 0 0 0 0 0 0 0 0 0 0 0 0 0 0 0 351 857 885 1098 1128
0 0 0 0 0 0 0 0 1 0 0 0 0 0 0 0 0 0 0 0 0 0 0 0 0 0 0 3 46 609 927 1199
0 0 0 0 0 0 0 0 0 0 0 0 0 0 0 0 0 0 0 0 0 0 0 0 0 0 0 0 4 4 754 799
0 0 0 0 0 0 0 0 0 0 0 0 0 0 0 0 0 0 0 0 0 0 0 0 0 0 0 0 0 0 0 727
0 0 0 0 0 0 0 0 0 0 0 0 0 0 0 0 0 0 0 0 0 0 0 0 0 0 0 0 0 0 0 12
0 0 0 0 0 0 0 0 0 0 0 0 0 0 0 0 0 0 0 0 0 0 0 0 0 0 0 0 0 0 0 0
0 1 0 0 0 0 0 0 0 0 0 0 0 0 0 0 0 0 0 0 0 0 0 0 0 0 0 0 0 0 0 0
5 7 1 0 0 0 0 0 0 0 0 0 0 0 0 0 0 0 0 0 0 0 0 0 0 0 0 0 0 0 0 0
15 21 12 0 0 0 0 0 0 0 0 0 0 0 0 0 0 0 0 0 0 0 0 0 0 1 0 0 0 0 0 0
7 18 0 0 0 0 0 0 0 0 0 0 0 0 0 0 0 0 2 1 1 1 3 1 1 3 6 5 6 3 0 0
0 0 0 0 0 0 0 0 0 0 0 0 0 0 0 0 1 1 3 6 6 6 6 9 14 15 10 11 14 9 3 1
0 0 0 0 0 0 0 0 0 0 0 0 2 3 4 6 9 10 20 17 12 14 13 14 14 19 13 12 11 10 8 1
15 0 0 0 0 0 0 0 0 0 3 10 14 17 22 23 26 23 24 18 19 19 21 17 16 17 26 27 18 13 16 7
8 0 0 0 0 0 0 0 2 3 10 17 17 12 16 13 12 18 11 13 20 24 22 24 20 18 21 41 29 22 12 28

GFSFLT2_con_sbcape_075.txt.gz
CAPE
0 34 102 58 44 16 87 57 53 111 7 0 110 205 283 665 612 183 1179 809 900 641 1000 564 665 643 661 1826 1898 2132 1953 2238
0 0 1 1 25 76 77 65 79 87 9 33 81 95 130 65 227 363 190 37 6 207 672 749 693 765 481 910 1773 2083 1979 2016
0 0 0 0 0 27 95 41 118 103 28 0 36 37 12 0 0 0 2 3 0 1 0 75 136 900 946 1006 1396 1955 1988 1999
0 0 0 0 7 1 43 32 13 88 0 19 8 0 0 0 0 0 0 0 3 4 6 0 0 1 157 1071 1208 1479 1734 2399
1 0 0 0 0 0 14 43 106 67 1 11 4 0 0 0 0 0 0 0 0 0 0 0 2 2 0 184 623 1055 1625 1563
1 8 0 0 0 0 1 13 35 118 62 0 5 0 0 0 0 0 0 0 0 0 0 0 0 2 2 0 162 423 1074 1321
0 0 1 7 0 0 0 0 76 176 109 4 0 0 0 0 0 0 0 0 0 0 0 0 0 0 1 0 6 7 216 1187
0 0 0 0 0 0 0 0 2 120 34 8 0 0 0 0 0 0 0 0 0 0 0 0 0 0 0 0 0 1 0 150
28 0 0 0 0 0 0 0 7 104 7 0 1 0 0 0 0 0 0 0 0 0 0 0 0 0 0 0 0 0 0 0
67 57 7 0 0 0 0 0 1 0 0 0 0 0 0 0 0 0 0 0 0 0 0 0 0 0 0 0 0 0 0 0
37 109 34 0 0 0 0 0 0 0 0 0 0 0 0 0 0 0 0 0 0 0 0 0 0 0 0 0 0 0 0 0
7 32 61 34 0 0 0 0 0 0 0 0 0 0 3 0 0 0 0 0 0 0 0 0 0 0 0 0 0 0 0 0
32 34 66 0 0 0 0 0 0 0 0 0 0 0 0 0 0 0 0 0 0 0 0 0 0 0 0 0 0 0 0 0
40 72 192 0 0 0 0 0 0 0 0 0 0 0 0 0 0 0 0 0 0 0 0 0 0 0 0 0 0 0 0 0
54 123 23 0 0 1 0 0 0 0 0 0 0 0 0 0 0 0 0 0 0 0 0 0 0 0 0 1 7 6 2 1
4 1 0 0 0 0 0 0 0 0 0 0 0 0 0 0 0 0 0 1 2 3 3 4 8 5 1 1 4 4 5 1
1 0 0 0 0 0 0 0 0 0 0 0 0 0 1 2 4 6 2 2 2 4 7 10 11 11 11 9 6 4 3 0
177 29 24 2 1 0 0 0 0 0 0 0 0 2 4 10 18 4 17 10 4 6 9 13 9 12 13 14 20 15 6 0
115 55 29 28 1 0 0 0 0 0 2 3 4 6 13 19 21 5 27 16 10 6 10 9 9 9 12 11 13 25 16 15

GFSFLT2_con_sbcape_078.txt.gz
CAPE
0 0 0 36 76 67 58 12 27 119 178 190 217 433 760 682 272 197 161 24 216 756 940 452 568 284 1275 2252 2597 2599 2383 2800
0 0 0 1 16 65 33 7 68 139 181 239 264 312 391 88 0 1 5 6 2 26 240 340 747 380 1303 2217 2571 2611 2417 2584
8 0 0 5 20 2 14 59 111 177 106 373 249 123 4 0 0 0 1 3 3 2 4 3 108 327 49 1933 2534 2677 2628 2545
5 0 0 2 3 0 74 71 30 22 0 149 7 0 0 0 0 0 0 0 3 2 4 4 2 0 0 192 231 2215 2439 2574
6 5 0 0 0 0 7 45 287 32 44 36 0 0 0 0 0 0 0 0 0 6 2 3 3 3 3 3 1 22 739 2499
0 0 0 0 0 0 0 6 12 121 278 29 0 0 0 0 0 0 0 0 0 0 0 0 1 3 1 6 1 7 3 367
2 0 0 0 0 0 0 0 129 341 373 19 3 0 0 0 0 0 0 0 0 0 0 0 0 0 0 1 1 2 2 55
0 0 0 0 0 6 0 0 39 180 191 7 0 0 0 0 0 0 0 0 0 0 0 0 0 0 0 0 0 0 0 3
10 0 0 0 0 0 0 0 377 320 55 1 0 1 1 0 0 0 0 0 0 0 0 0 0 0 0 0 0 0 0 0
47 1 0 0 0 0 0 20 221 201 36 9 1 0 0 0 0 0 0 0 0 0 0 0 0 0 0 0 0 0 0 0
84 1 7 1 0 0 0 30 68 32 1 4 0 0 0 0 0 0 0 0 0 0 0 0 0 0 0 0 0 0 0 0
68 55 47 37 0 0 0 38 1 0 0 0 0 0 0 0 0 0 0 0 0 0 0 0 0 0 0 0 0 0 0 0
61 94 179 1 0 0 0 6 0 1 0 0 0 0 0 0 0 0 0 0 0 0 0 0 0 0 0 0 0 0 0 0
36 157 318 0 0 0 2 0 0 0 0 0 0 0 0 0 0 0 0 0 0 0 0 0 0 0 0 0 1 0 0 3
160 377 178 1 1 0 0 0 0 0 0 0 0 0 0 0 0 0 0 0 0 0 0 0 0 0 0 12 9 10 10 6
83 68 74 70 7 0 0 0 0 0 0 0 0 0 0 0 0 0 0 0 0 0 0 0 2 1 1 8 16 13 12 11
18 3 3 0 4 0 0 0 0 0 0 0 0 0 0 0 0 0 0 2 0 0 1 3 8 8 1 10 7 1 3 2
473 112 160 114 26 14 0 0 0 0 0 0 0 0 0 0 4 0 1 6 3 1 1 4 7 8 22 21 15 3 0 0
250 352 287 113 214 28 9 5 0 0 5 6 1 1 1 9 6 6 5 14 0 1 4 3 6 10 17 18 16 12 5 4